[[{"header":{"parameterUnit":"m.s-1","parameterCategory":1,"la1":30.2991,"la2":30.254,"lo1":-89.0895,"lo2":-89.0444,"dy":0.0017,"dx":0.0017,"nx":28,"ny":28,"refTime":"2024-03-30T09:00:00:Z","depth":0,"parameterNumber":2,"parameterNumberName":"U-component_of_WINDS"},"data":[0,0,0,0,0,0,0,0,0,0,0,0,0,0,0,0,0,0,0,0,0,0,0,0,0,0,0,0,0,0,0,0,0,0,0,0,0,0,0,0,0,0,0,0,0,0,0,0,0,0,0,0,0,0,0,0,0,0,-1.1423,-1.1423,0,-1.1428,-1.1428,-1.1428,-1.1414,-1.1414,-1.1413,-1.1413,-1.1419,-1.1419,-1.142,0,0,0,0,0,0,0,0,0,0,0,0,0,-1.1404,-1.1405,-1.1423,-1.1423,-1.1423,-1.1428,-1.1428,-1.1428,-1.1414,-1.1414,-1.1413,-1.1413,-1.1419,-1.1419,-1.142,0,0,0,0,0,0,0,0,0,0,0,0,0,-1.1411,-1.1405,-1.1423,-1.1417,-1.1417,-1.1428,-1.1428,-1.1428,-1.1414,-1.1414,-1.1413,-1.1413,-1.1418,-1.1419,-1.142,-1.1438,0,0,-1.1423,-1.1423,0,0,0,0,0,0,0,0,-1.1411,-1.1412,-1.1418,-1.1417,-1.1417,-1.142,-1.1423,-1.1431,-1.1415,-1.1415,-1.1413,-1.1412,-1.142,-1.142,-1.1423,-1.1438,-1.1438,-1.1423,-1.1423,-1.1423,-1.1424,0,0,0,0,0,0,0,-1.141,-1.1412,-1.1425,-1.1418,-1.1417,-1.1415,-1.1415,-1.1425,-1.1421,-1.1415,-1.1414,-1.1415,-1.1419,-1.1422,-1.1423,-1.1438,-1.1423,-1.1423,-1.1424,-1.1424,-1.1469,-1.1469,0,0,0,0,0,0,-1.141,-1.1411,-1.1425,-1.1425,-1.1412,-1.1415,-1.1416,-1.1419,-1.1421,-1.142,-1.1415,-1.1414,-1.1421,-1.1422,-1.1423,-1.1444,-1.1423,-1.1424,-1.1425,-1.1468,-1.1469,-1.147,0,0,0,0,0,0,-1.141,-1.1412,-1.1425,-1.1418,-1.1419,-1.1416,-1.1421,-1.142,-1.1422,-1.1421,-1.142,-1.1418,-1.142,-1.1422,-1.1434,-1.1444,-1.1425,-1.1425,-1.1467,-1.1468,-1.1469,-1.1485,0,0,0,0,0,0,-1.141,-1.1412,-1.1418,-1.1418,-1.142,-1.1435,-1.1421,-1.142,-1.1424,-1.1422,-1.1424,-1.1423,-1.142,-1.1433,-1.1435,-1.1444,-1.1426,-1.1466,-1.1468,-1.1469,-1.1484,-1.1487,-1.1489,0,0,0,0,0,-1.1409,-1.1423,-1.1418,-1.142,-1.1428,-1.1436,-1.1437,-1.1432,-1.1425,-1.1431,-1.143,-1.1423,-1.1442,-1.1434,-1.1436,-1.1446,-1.1466,-1.1467,-1.1469,-1.1483,-1.1486,-1.1489,0,0,0,0,0,0,-1.1424,-1.1422,-1.1418,-1.1432,-1.1434,-1.1434,-1.1442,-1.1436,-1.1441,-1.1439,-1.1434,-1.1434,-1.1448,-1.1448,-1.1439,-1.1464,-1.1453,-1.1455,-1.1463,-1.1466,-1.1468,-1.1468,-1.1427,0,0,0,0,0,-1.1429,-1.1436,-1.1434,-1.1447,-1.1448,-1.1445,-1.1448,-1.1444,-1.1447,-1.1448,-1.1448,-1.1451,-1.1457,-1.1462,-1.1468,-1.1484,-1.1484,-1.1492,-1.1495,-1.1497,-1.1498,-1.1507,-1.1511,-1.1475,-1.1475,-1.1475,0,0,-1.1439,-1.1439,-1.1444,-1.145,-1.1451,-1.1458,-1.1446,-1.1454,-1.1459,-1.1449,-1.1461,-1.1461,-1.1464,-1.1478,-1.1485,-1.1479,-1.1509,-1.1499,-1.15,-1.1501,-1.1509,-1.1513,-1.1516,-1.1476,-1.1476,-1.1475,0,0,-1.1462,-1.1462,-1.1473,-1.1474,-1.1476,-1.1474,-1.1477,-1.1477,-1.1477,-1.1488,-1.1481,-1.1487,-1.1499,-1.1501,-1.1504,-1.1528,-1.1522,-1.153,-1.1543,-1.1552,-1.1555,-1.1557,-1.1566,-1.1569,-1.1532,-1.1532,-1.1532,0,-1.1474,-1.1484,-1.1479,-1.1488,-1.1491,-1.1481,-1.1492,-1.1494,-1.1498,-1.1501,-1.1494,-1.1509,-1.151,-1.1525,-1.1531,-1.1533,-1.1536,-1.1529,-1.1555,-1.1557,-1.156,-1.1567,-1.1571,-1.1533,-1.1533,-1.1532,-1.1532,0,-1.15,-1.1507,-1.1515,-1.1519,-1.1523,-1.1533,-1.1529,-1.1534,-1.153,-1.1529,-1.1541,-1.1542,-1.1548,-1.1551,-1.1548,-1.1566,-1.1562,-1.1556,-1.1545,-1.1564,-1.1571,-1.1574,-1.1534,-1.1534,-1.1533,-1.1533,0,0,-1.1531,-1.1532,-1.1535,-1.1537,-1.1538,-1.1544,-1.1554,-1.1559,-1.1563,-1.1567,-1.1575,-1.1585,-1.1579,-1.1582,-1.1579,-1.1586,-1.1605,-1.1578,-1.1578,-1.1583,-1.1625,-1.1629,-1.1633,-1.1601,-1.1601,-1.1602,-1.1624,0,-1.1553,-1.1569,-1.1564,-1.158,-1.1587,-1.1579,-1.1587,-1.1589,-1.1588,-1.1594,-1.1594,-1.1601,-1.1592,-1.1594,-1.1601,-1.1601,-1.1613,-1.1599,-1.1608,-1.1609,-1.1607,-1.1637,-1.1642,-1.1663,-1.1627,-1.1628,-1.1628,0,-1.1581,-1.1584,-1.1601,-1.1601,-1.1604,-1.1612,-1.1616,-1.1622,-1.1625,-1.1624,-1.1627,-1.1623,-1.1632,-1.1622,-1.1635,-1.1626,-1.163,-1.163,-1.1631,-1.1631,-1.1619,-1.1637,-1.1669,-1.1672,-1.1632,-1.1632,-1.1632,0,-1.1602,-1.1611,-1.1622,-1.1624,-1.1625,-1.163,-1.1631,-1.1633,-1.1637,-1.1641,-1.1643,-1.1649,-1.1652,-1.1657,-1.1654,-1.1647,-1.1669,-1.1658,-1.1668,-1.1668,-1.1673,-1.1672,-1.1705,-1.1676,-1.1676,-1.1676,-1.1676,0,-1.1626,-1.1636,-1.1631,-1.1638,-1.165,-1.1645,-1.1656,-1.1656,-1.1658,-1.1665,-1.1659,-1.1666,-1.1661,-1.1668,-1.1666,-1.1678,-1.1679,-1.1679,-1.1678,-1.1679,-1.1679,-1.1681,-1.1679,-1.1677,-1.1676,-1.1676,-1.1676,0,-1.1651,-1.1648,-1.166,-1.166,-1.166,-1.1669,-1.1669,-1.1675,-1.1674,-1.1683,-1.1685,-1.1683,-1.1691,-1.1688,-1.1697,-1.1695,-1.171,-1.1707,-1.1709,-1.1708,-1.1718,-1.1717,-1.1753,-1.1758,-1.1726,-1.1726,-1.1726,0,-1.1667,-1.1675,-1.1675,-1.1679,-1.168,-1.1687,-1.169,-1.1686,-1.169,-1.1694,-1.17,-1.1707,-1.1712,-1.1725,-1.1724,-1.1731,-1.1728,-1.174,-1.1729,-1.173,-1.1728,-1.1727,-1.1728,-1.1742,-1.1743,-1.1743,-1.1743,0,-1.1695,-1.1693,-1.1698,-1.1703,-1.1707,-1.1711,-1.1714,-1.1718,-1.1714,-1.1719,-1.1726,-1.173,-1.1738,-1.1745,-1.1751,-1.1752,-1.1747,-1.1747,-1.175,-1.1751,-1.1751,-1.1751,-1.1714,-1.1746,-1.1746,-1.1746,-1.1745,-1.1745,-1.1716,-1.1722,-1.1723,-1.1729,-1.1731,-1.1734,-1.174,-1.174,-1.1746,-1.1752,-1.1749,-1.1757,-1.176,-1.1767,-1.177,-1.1776,-1.1772,-1.1776,-1.1777,-1.1778,-1.1779,-1.175,-1.1778,-1.1777,-1.1777,-1.1777,-1.1777,0,-1.1743,-1.1744,-1.1749,-1.1753,-1.1758,-1.1753,-1.1756,-1.1761,-1.1768,-1.1771,-1.1776,-1.1784,-1.1791,-1.1791,-1.1798,-1.1803,-1.1801,-1.1805,-1.1804,-1.1805,-1.1783,-1.178,-1.1807,-1.1807,-1.1807,-1.1807,-1.1807,-1.1807,-1.1758,-1.1768,-1.1767,-1.1778,-1.1779,-1.1786,-1.1789,-1.1792,-1.1794,-1.1803,-1.1809,-1.1809,-1.1811,-1.1817,-1.1823,-1.1823,-1.1826,-1.1831,-1.183,-1.1809,-1.1806,-1.1804,-1.18,-1.1831,-1.1832,-1.1851,-1.1851,-1.1852]},{"header":{"parameterUnit":"m.s-1","parameterCategory":1,"la1":30.2991,"la2":30.254,"lo1":-89.0895,"lo2":-89.0444,"dy":0.0017,"dx":0.0017,"nx":28,"ny":28,"refTime":"2024-03-30T09:00:00:Z","depth":0,"parameterNumber":3,"parameterNumberName":"V-component_of_WINDS"},"data":[0,0,0,0,0,0,0,0,0,0,0,0,0,0,0,0,0,0,0,0,0,0,0,0,0,0,0,0,0,0,0,0,0,0,0,0,0,0,0,0,0,0,0,0,0,0,0,0,0,0,0,0,0,0,0,0,0,0,2.4846,2.4846,0,2.4848,2.4848,2.4848,2.4819,2.4819,2.4818,2.4817,2.4819,2.482,2.4821,0,0,0,0,0,0,0,0,0,0,0,0,0,2.4819,2.482,2.4846,2.4846,2.4846,2.4848,2.4848,2.4848,2.482,2.4819,2.4818,2.4817,2.4819,2.482,2.4821,0,0,0,0,0,0,0,0,0,0,0,0,0,2.4827,2.482,2.4846,2.4832,2.4831,2.4848,2.4848,2.4848,2.482,2.4819,2.4817,2.4816,2.4819,2.482,2.4821,2.4851,0,0,2.4825,2.4825,0,0,0,0,0,0,0,0,2.4826,2.4828,2.4834,2.4833,2.4832,2.4832,2.4839,2.4849,2.482,2.4824,2.4817,2.4816,2.4825,2.4825,2.4828,2.4852,2.4852,2.4825,2.4825,2.4826,2.4826,0,0,0,0,0,0,0,2.4826,2.4828,2.4847,2.4835,2.4833,2.4826,2.4826,2.4841,2.4831,2.4824,2.4822,2.4822,2.4824,2.4827,2.4828,2.4852,2.4825,2.4826,2.4826,2.4827,2.49,2.4901,0,0,0,0,0,0,2.4827,2.4827,2.4847,2.4847,2.4826,2.4828,2.4827,2.4833,2.4831,2.4829,2.4823,2.4821,2.4826,2.4827,2.4828,2.4863,2.4826,2.4827,2.4828,2.4899,2.49,2.4901,0,0,0,0,0,0,2.4827,2.4829,2.4847,2.4837,2.4838,2.4829,2.4836,2.4834,2.4837,2.483,2.4828,2.4828,2.4825,2.4826,2.4846,2.4863,2.4828,2.4829,2.4897,2.4899,2.4901,2.4934,0,0,0,0,0,0,2.4826,2.4829,2.4841,2.4837,2.4839,2.4865,2.4837,2.4835,2.4839,2.4836,2.4835,2.4833,2.4824,2.4844,2.4847,2.4864,2.483,2.4895,2.4898,2.49,2.4931,2.4937,2.4941,0,0,0,0,0,2.4825,2.485,2.4841,2.4844,2.4853,2.4866,2.4867,2.4856,2.4841,2.4852,2.4848,2.4833,2.486,2.4846,2.4849,2.4867,2.4894,2.4897,2.49,2.4929,2.4936,2.4941,0,0,0,0,0,0,2.4856,2.4849,2.484,2.4864,2.4866,2.4861,2.4875,2.4863,2.4869,2.4866,2.4852,2.4852,2.4873,2.4872,2.4856,2.4896,2.4875,2.4878,2.4896,2.4902,2.4907,2.4907,2.483,0,0,0,0,0,2.4866,2.4877,2.487,2.4892,2.4894,2.4884,2.4889,2.488,2.4882,2.4882,2.4879,2.4881,2.489,2.4896,2.4904,2.4931,2.493,2.4944,2.4949,2.4954,2.4957,2.4971,2.4977,2.491,2.491,2.491,0,0,2.4886,2.4884,2.4892,2.4899,2.4899,2.491,2.4885,2.4898,2.4907,2.4884,2.4902,2.49,2.4901,2.4924,2.4935,2.4924,2.4975,2.4957,2.496,2.4962,2.4975,2.4981,2.4987,2.4912,2.4912,2.4912,0,0,2.4929,2.4928,2.4947,2.4947,2.4948,2.4941,2.4945,2.4942,2.494,2.4958,2.4941,2.4951,2.4966,2.4968,2.497,2.5013,2.5,2.5016,2.5043,2.5057,2.5062,2.5067,2.5082,2.5088,2.5019,2.5019,2.5019,0,2.4954,2.4971,2.4958,2.4972,2.4976,2.4955,2.4974,2.4975,2.4978,2.4981,2.4969,2.4988,2.4987,2.5011,2.5021,2.5024,2.5029,2.5016,2.5062,2.5067,2.5071,2.5085,2.5091,2.5021,2.5021,2.5021,2.5021,0,2.5002,2.5014,2.5028,2.5032,2.5037,2.5053,2.5043,2.5049,2.504,2.5035,2.5053,2.5051,2.5058,2.5063,2.5054,2.5085,2.5079,2.5065,2.5043,2.5079,2.5093,2.5098,2.5024,2.5023,2.5023,2.5022,0,0,2.5065,2.506,2.5066,2.5067,2.5066,2.5075,2.509,2.5096,2.5103,2.5105,2.5118,2.5131,2.5118,2.5121,2.5112,2.5124,2.5158,2.5109,2.5109,2.5118,2.5193,2.5204,2.521,2.515,2.5151,2.5151,2.5193,0,2.5107,2.5133,2.5121,2.5148,2.5159,2.5139,2.5153,2.5154,2.5149,2.5157,2.5152,2.5162,2.5144,2.5145,2.5157,2.5152,2.5173,2.5149,2.5161,2.5162,2.5162,2.5217,2.5229,2.5268,2.5198,2.5199,2.5199,0,2.5159,2.5164,2.5192,2.5188,2.5192,2.5205,2.5209,2.5218,2.5218,2.5214,2.5217,2.5205,2.522,2.5198,2.5218,2.5202,2.5206,2.5205,2.5206,2.5207,2.5183,2.522,2.528,2.5286,2.5207,2.5207,2.5206,0,2.5203,2.5216,2.5234,2.5236,2.5232,2.5241,2.524,2.5239,2.5243,2.5248,2.525,2.5257,2.526,2.5265,2.5255,2.524,2.5277,2.5254,2.5274,2.5274,2.5283,2.5282,2.5345,2.5285,2.5285,2.5285,2.5285,0,2.5251,2.5269,2.5254,2.5265,2.5285,2.5271,2.5291,2.5288,2.5287,2.5297,2.5281,2.5291,2.5277,2.5286,2.5278,2.5296,2.5297,2.5294,2.5292,2.5296,2.5297,2.5299,2.5296,2.5286,2.5286,2.5286,2.5285,0,2.5303,2.5293,2.5312,2.5307,2.5306,2.5321,2.5316,2.5326,2.532,2.5334,2.5336,2.5327,2.5336,2.5327,2.5336,2.533,2.5355,2.5348,2.5355,2.5353,2.5373,2.5371,2.5439,2.5448,2.5383,2.5383,2.5384,0,2.5334,2.5348,2.5344,2.5349,2.5349,2.5359,2.5363,2.535,2.5355,2.5356,2.5367,2.5375,2.538,2.5396,2.5391,2.5397,2.5391,2.5414,2.5392,2.5395,2.5392,2.5391,2.5392,2.5419,2.542,2.5421,2.5421,0,2.5391,2.5386,2.5393,2.5398,2.5404,2.5407,2.541,2.5415,2.5402,2.5409,2.5418,2.5422,2.5431,2.5439,2.5444,2.5443,2.543,2.5428,2.5433,2.5437,2.5441,2.5439,2.5367,2.5427,2.5426,2.5426,2.5425,2.5425,2.5434,2.5445,2.5444,2.5452,2.5452,2.5455,2.5464,2.5459,2.5467,2.5473,2.5464,2.5476,2.5475,2.5481,2.5481,2.549,2.548,2.5487,2.5489,2.5491,2.5494,2.5439,2.5491,2.549,2.549,2.549,2.549,0,2.5491,2.5489,2.5496,2.55,2.5506,2.5493,2.5494,2.5501,2.5511,2.5512,2.5518,2.5528,2.5536,2.553,2.5537,2.5545,2.5539,2.5547,2.5547,2.5547,2.5502,2.5498,2.5552,2.5552,2.5552,2.5552,2.5552,2.5552,2.5521,2.5538,2.5533,2.555,2.5548,2.5559,2.5561,2.5563,2.5564,2.5576,2.5582,2.5579,2.5577,2.5583,2.5589,2.5588,2.5591,2.5601,2.5597,2.5556,2.555,2.5544,2.554,2.5602,2.5602,2.5641,2.5641,2.5642]}]]